Reflectivity
0 -1 -9 -20 -20 -20 -20 -20 -20 -20 -20 -20 -20 -20 -20 -20 -3 2 5 5 4 1
14 -9 -20 -20 -19 -20 -20 -20 -20 -20 -20 -20 -20 -20 -20 2 2 3 4 5 1 -2
-19 -20 -20 -8 -19 -20 -20 -20 -20 -20 -20 -20 -20 -20 -20 1 -19 -5 5 4 0 -20
-20 -20 -2 -19 -20 -20 -20 -20 -20 -20 -20 -20 -20 -20 -20 -1 -20 -19 0 3 -7 -9
-20 -9 2 -9 -20 -20 -20 -20 -20 -20 -20 -20 -20 -20 -9 2 1 -3 -0 3 4 1
0 -2 -20 -20 -20 -20 -20 -20 -20 -20 -20 -20 -20 -20 -18 -1 12 -7 -7 2 3 3
-20 -20 -20 -20 -20 -20 -20 -20 -20 -20 -20 -20 -20 -20 -3 7 8 -20 1 2 1 5
-20 -20 -20 -20 -20 -20 -20 -20 -20 -20 -20 -20 -20 -20 4 13 -4 -5 -1 -3 -1 0
-20 -20 -20 -20 -20 -20 -20 -20 -20 -20 -20 -20 -20 3 1 10 -18 -2 -3 -6 -1 -1
-20 -20 -20 -20 -20 -20 -20 -20 -20 -20 -20 -20 -20 -5 11 7 -3 -20 -12 -3 0 0
-20 -20 -20 -20 -20 -20 -20 -20 -20 -20 -20 -20 -20 -14 7 5 -9 -10 -18 -14 -1 4
-20 -20 -20 -20 -20 -20 -20 -20 -20 -20 -20 -20 -20 -13 4 3 -7 -20 -20 -20 -6 5
-20 -20 -20 -20 -20 -20 -20 -20 -20 -20 -20 -20 -20 -20 -4 -1 -7 -12 -20 -20 -20 -20
-20 -20 -20 -20 -20 -20 -20 -20 -20 -20 -20 -20 -20 -20 -20 -3 -3 0 -20 -20 -20 -20
Wind_Speed
5 4 4 5 5 5 5 5 7 6 7 9 10 10 11 8 8 8 7 9 8 7
5 5 5 6 5 5 5 6 7 7 7 10 10 11 12 8 9 9 8 9 8 7
4 5 6 6 7 7 7 7 8 7 8 10 11 12 12 9 10 11 8 7 9 7
5 6 6 6 7 8 8 8 8 7 9 11 13 13 11 11 11 12 11 9 9 10
5 6 7 8 8 9 9 7 7 8 10 12 14 12 12 13 12 13 12 10 11 11
7 7 8 9 9 9 9 8 9 10 12 13 13 11 12 15 11 14 12 11 11 11
8 8 8 9 10 10 9 9 10 11 12 12 12 11 14 17 13 14 11 11 10 10
7 8 8 9 10 10 10 10 11 11 11 12 11 9 16 16 15 13 12 11 10 10
7 8 9 9 10 10 11 11 11 11 12 12 9 18 22 19 14 13 12 11 11 11
7 8 9 9 9 10 12 12 12 12 12 12 12 21 24 23 12 12 12 11 11 11
7 8 9 9 10 11 11 12 12 12 13 12 11 22 24 25 14 12 12 11 11 12
7 8 9 10 11 11 11 11 12 12 14 14 13 22 24 21 13 13 13 12 11 12
6 7 8 9 10 10 10 11 10 12 12 14 14 20 26 21 11 14 11 12 13 16
5 6 7 8 9 10 11 11 12 13 12 13 14 17 24 24 13 11 10 10 11 11
Wind_Direction
34 24 12 5 352 346 338 337 339 333 337 344 344 340 338 333 333 326 320 312 301 292
22 10 1 352 336 336 336 333 333 332 338 342 345 343 340 338 333 328 322 315 305 300
8 2 355 346 349 339 338 334 333 336 339 343 345 342 340 340 326 331 324 314 313 307
12 7 2 353 345 341 334 342 341 340 341 345 343 338 335 341 328 333 324 316 304 303
16 8 3 353 348 345 344 353 355 345 344 343 338 334 332 330 332 332 326 319 313 308
15 13 2 360 2 1 359 3 356 352 348 341 339 334 336 332 321 330 323 320 313 310
19 13 7 8 9 8 2 4 1 353 347 344 340 339 336 333 333 331 329 321 318 310
20 14 11 9 8 5 1 1 355 354 352 348 343 347 332 334 338 337 331 330 325 320
15 11 11 10 7 6 5 4 360 357 352 347 348 342 336 346 337 335 338 332 332 329
16 20 18 14 12 11 10 5 3 358 351 349 350 343 343 348 339 334 340 335 333 331
27 27 20 17 17 14 5 5 1 357 355 351 359 348 350 348 342 335 341 339 334 330
32 29 19 17 14 10 4 2 359 356 357 356 358 353 354 351 344 341 345 342 341 335
37 26 20 13 9 3 2 3 358 355 360 1 358 358 358 359 348 345 345 346 342 345
23 14 10 3 5 1 3 4 2 0 3 1 5 358 360 1 355 349 341 345 343 342